Карточка аэропорта UNBB

Внимание!
Информация на этой странице в стадии наполнения.
Если вы не увидели какой-то информации, или заметили неточность - пожалуйста сообщите нам!
Спасибо!
Команда RU-STAFF
Название аэропортаМихайловка
Название аэропорта (англ.)Mikhaylovka
Превышение837 ft. (255.1 m.)
Координаты53°21.798', 83°32.382'
Высота перехода700m
Эшелон переходаFL050
Коды ответчика5301-5307
Зона ОрВДНовосибирск РПИ (UNNT)
Данные METARUNBB 181330Z 16003MPS CAVOK 21/M01 Q1009 R24/CLRD66 NOSIG RMK QFE735
Проноз погоды (TAF)UNBB 181100Z 1812/1912 15003G08MPS 8000 SCT040CB TEMPO 1812/1903 20005MPS TEMPO 1903/1909 26005MPS TEMPO 1909/1912 34005MPS
NOTAMshow/hide NOTAM
AWOS   TABLE

Информация о ВПП

ВПП Длина ВПП (м.) Покрытие Курс ВПП Частота ILS
062853Асфальтобетон59 
242853Асфальтобетон239108.7

Диспетчерские позиции




Спутниковое изображение